Weather History for KBTP - November, 2013

Change the Weather History Date:

Thursday, November 7, 2013

  Actual Average Record
Temperature  
Mean Temperature 46 °F -  
Max Temperature 55 °F 49 °F - (-1)
Min Temperature 37 °F 34 °F - (-1)
Degree Days  
Heating Degree Days 19    
Moisture  
Dew Point 36 °F    
Average Humidity 75    
Maximum Humidity 94    
Minimum Humidity 52    
Precipitation  
Precipitation 0.53 in - - ()
Sea Level Pressure  
Sea Level Pressure 30.04 in    
Wind  
Wind Speed 9 mph (West)    
Max Wind Speed 15 mph    
Max Gust Speed 22 mph    
Visibility 10 miles    
Events      
Averages and records for this station are not official NWS values.
T = Trace of Precipitation, MM = Missing Value Source: NWS Daily Summary

Daily Weather History Graph

Daily Weather History Graph

Search for Another Location

Airport or City:

Trip Planner

Search our weather history database for the weather conditions in past years. The results will help you decide how hot, cold, wet, or windy it might be!

Date:

Astronomy

Nov. 07, 2013 Rise Set
Actual Time 6:57 AM EST 5:08 PM EST
Civil Twilight 6:28 AM EST 5:37 PM EST
Nautical Twilight 5:56 AM EST 6:10 PM EST
Astronomical Twilight 5:23 AM EST 6:42 PM EST
Moon 11:05 AM EST (11/7) 9:18 PM EST (11/7)
Length of Visible Light 11h 09m
Length of Day
10h 11m
Waxing Crescent, 22% of the Moon is Illuminated
Nov 7
Waxing Crescent
Nov 10
First Quarter
Nov 17
Full
Nov 25
Last Quarter
Dec 2
New

Hourly Weather History & Observations

Time (EST) Temp. Windchill Dew Point Humidity Pressure Visibility Wind Dir Wind Speed Gust Speed Precip Events Conditions
12:15 AM 55.4 °F - 53.6 °F 94% 29.93 in 5.0 mi South 9.2 mph - 0.01 in   Overcast
12:35 AM 55.4 °F - 53.6 °F 94% 29.92 in 8.0 mi South 8.1 mph - 0.03 in   Overcast
12:55 AM 55.4 °F - 53.6 °F 94% 29.92 in 7.0 mi SSW 6.9 mph - 0.04 in   Overcast
1:15 AM 55.4 °F - 53.6 °F 94% 29.91 in 10.0 mi SSW 12.7 mph - 0.02 in   Overcast
1:35 AM 55.4 °F - 53.6 °F 94% 29.90 in 8.0 mi SSW 11.5 mph 17.3 mph 0.04 in   Overcast
1:55 AM 55.4 °F - 53.6 °F 94% 29.90 in 10.0 mi SSW 11.5 mph 16.1 mph 0.07 in   Overcast
2:15 AM 55.4 °F - 53.6 °F 94% 29.92 in 6.0 mi West 10.4 mph 17.3 mph 0.12 in   Overcast
2:35 AM 55.4 °F - 51.8 °F 88% 29.91 in 10.0 mi West 9.2 mph - 0.14 in   Mostly Cloudy
2:55 AM 53.6 °F - 51.8 °F 94% 29.92 in 10.0 mi WNW 12.7 mph 20.7 mph 0.18 in   Overcast
3:15 AM 50.0 °F - 46.4 °F 87% 29.92 in 10.0 mi WNW 6.9 mph 17.3 mph 0.04 in   Overcast
3:35 AM 48.2 °F - 46.4 °F 93% 29.94 in 10.0 mi NW 9.2 mph - 0.06 in   Overcast
3:55 AM 48.2 °F - 44.6 °F 87% 29.94 in 10.0 mi WNW 8.1 mph - 0.09 in   Overcast
4:15 AM 46.4 °F 42.4 °F 44.6 °F 93% 29.95 in 10.0 mi WNW 8.1 mph - 0.03 in   Overcast
4:35 AM 46.4 °F 43.5 °F 44.6 °F 93% 29.94 in 10.0 mi NNW 5.8 mph - 0.06 in   Overcast
4:55 AM 46.4 °F 43.5 °F 42.8 °F 87% 29.95 in 10.0 mi NW 5.8 mph - 0.08 in   Overcast
5:15 AM 46.4 °F 42.9 °F 42.8 °F 87% 29.96 in 10.0 mi West 6.9 mph - 0.02 in   Mostly Cloudy
5:35 AM 46.4 °F 43.5 °F 42.8 °F 87% 29.95 in 10.0 mi West 5.8 mph - 0.03 in   Overcast
5:55 AM 46.4 °F 42.9 °F 42.8 °F 87% 29.98 in 10.0 mi West 6.9 mph - 0.04 in   Overcast
6:15 AM 44.6 °F 41.4 °F 42.8 °F 93% 29.96 in 10.0 mi NW 5.8 mph 18.4 mph 0.01 in   Overcast
6:35 AM 44.6 °F 39.7 °F 39.2 °F 81% 29.98 in 4.0 mi NNW 9.2 mph 21.9 mph 0.01 in   Overcast
6:55 AM 42.8 °F 38.6 °F 39.2 °F 87% 29.98 in 10.0 mi NNW 6.9 mph - 0.01 in   Overcast
7:15 AM 42.8 °F 39.3 °F 39.2 °F 87% 30.01 in 10.0 mi NW 5.8 mph - N/A   Overcast
7:35 AM 42.8 °F 38.0 °F 37.4 °F 81% 30.00 in 10.0 mi NW 8.1 mph 16.1 mph N/A   Overcast
7:55 AM 42.8 °F 39.3 °F 37.4 °F 81% 30.03 in 10.0 mi NW 5.8 mph - N/A   Overcast
8:15 AM 42.8 °F 38.6 °F 37.4 °F 81% 30.03 in 5.0 mi NW 6.9 mph - N/A   Overcast
8:35 AM 42.8 °F 38.6 °F 37.4 °F 81% 30.04 in 10.0 mi WNW 6.9 mph - N/A   Overcast
8:55 AM 42.8 °F 38.0 °F 37.4 °F 81% 30.05 in 10.0 mi WNW 8.1 mph - N/A   Overcast
9:15 AM 42.8 °F 39.3 °F 37.4 °F 81% 30.04 in 10.0 mi NW 5.8 mph - N/A   Overcast
9:35 AM 42.8 °F 38.6 °F 37.4 °F 81% 30.04 in 10.0 mi WNW 6.9 mph - N/A   Overcast
9:55 AM 42.8 °F 38.0 °F 35.6 °F 76% 30.05 in 7.0 mi NW 8.1 mph - N/A   Overcast
10:15 AM 42.8 °F 37.0 °F 35.6 °F 76% 30.06 in 10.0 mi WNW 10.4 mph - N/A   Overcast
10:35 AM 42.8 °F 39.3 °F 35.6 °F 76% 30.06 in 10.0 mi WNW 5.8 mph - N/A   Mostly Cloudy
10:55 AM 42.8 °F 39.3 °F 33.8 °F 70% 30.07 in 10.0 mi WNW 5.8 mph - N/A   Overcast
11:15 AM 44.6 °F 40.7 °F 33.8 °F 66% 30.07 in 10.0 mi WNW 6.9 mph - N/A   Overcast
11:35 AM 44.6 °F 41.4 °F 33.8 °F 66% 30.08 in 10.0 mi West 5.8 mph 17.3 mph N/A   Overcast
11:55 AM 46.4 °F 41.9 °F 33.8 °F 62% 30.07 in 10.0 mi West 9.2 mph 17.3 mph N/A   Overcast
12:15 PM 44.6 °F 39.2 °F 33.8 °F 66% 30.05 in 10.0 mi WNW 10.4 mph 16.1 mph N/A   Overcast
12:35 PM 42.8 °F 36.6 °F 35.6 °F 76% 30.06 in 4.0 mi West 11.5 mph 20.7 mph 0.01 in   Overcast
12:55 PM 42.8 °F 38.0 °F 37.4 °F 81% 30.05 in 10.0 mi WNW 8.1 mph 17.3 mph 0.01 in   Overcast
1:15 PM 42.8 °F 38.0 °F 35.6 °F 76% 30.06 in 10.0 mi West 8.1 mph 18.4 mph N/A   Overcast
1:35 PM 42.8 °F 37.5 °F 35.6 °F 76% 30.05 in 9.0 mi West 9.2 mph - N/A   Mostly Cloudy
1:55 PM 42.8 °F 36.6 °F 35.6 °F 76% 30.05 in 8.0 mi West 11.5 mph 17.3 mph N/A   Overcast
2:15 PM 42.8 °F 37.5 °F 35.6 °F 76% 30.05 in 10.0 mi WNW 9.2 mph 19.6 mph N/A   Overcast
2:35 PM 41.0 °F 34.7 °F 33.8 °F 76% 30.05 in 10.0 mi West 10.4 mph 20.7 mph N/A   Overcast
2:55 PM 42.8 °F 35.8 °F 33.8 °F 70% 30.05 in 10.0 mi West 13.8 mph 21.9 mph N/A   Mostly Cloudy
3:15 PM 41.0 °F 33.9 °F 33.8 °F 76% 30.06 in 10.0 mi WNW 12.7 mph 20.7 mph N/A   Mostly Cloudy
3:35 PM 39.2 °F 32.5 °F 30.2 °F 70% 30.06 in 10.0 mi West 10.4 mph 18.4 mph N/A   Mostly Cloudy
3:55 PM 39.2 °F 32.5 °F 30.2 °F 70% 30.07 in 10.0 mi West 10.4 mph 18.4 mph N/A   Overcast
4:15 PM 39.2 °F 31.6 °F 26.6 °F 61% 30.07 in 10.0 mi West 12.7 mph 18.4 mph N/A   Overcast
4:35 PM 39.2 °F 32.5 °F 26.6 °F 61% 30.08 in 10.0 mi West 10.4 mph 20.7 mph N/A   Overcast
4:55 PM 39.2 °F 31.2 °F 24.8 °F 56% 30.09 in 10.0 mi WNW 13.8 mph 21.9 mph 0.01 in   Overcast
5:15 PM 39.2 °F 30.8 °F 23.0 °F 52% 30.10 in 10.0 mi West 15.0 mph 20.7 mph N/A   Overcast
5:35 PM 37.4 °F 30.8 °F 21.2 °F 52% 30.10 in 10.0 mi West 9.2 mph - N/A   Overcast
5:55 PM 37.4 °F 32.8 °F 21.2 °F 52% 30.10 in 10.0 mi West 5.8 mph - N/A   Overcast
6:15 PM 37.4 °F 33.8 °F 23.0 °F 56% 30.11 in 10.0 mi West 4.6 mph - N/A   Overcast
6:35 PM 37.4 °F 32.1 °F 24.8 °F 60% 30.11 in 10.0 mi West 6.9 mph - N/A   Overcast
6:55 PM 37.4 °F 32.1 °F 24.8 °F 60% 30.12 in 10.0 mi West 6.9 mph - N/A   Overcast
7:15 PM 37.4 °F 32.1 °F 24.8 °F 60% 30.13 in 10.0 mi West 6.9 mph - N/A   Overcast
7:35 PM 37.4 °F 31.4 °F 24.8 °F 60% 30.13 in 10.0 mi West 8.1 mph - N/A   Overcast
7:55 PM 37.4 °F 32.1 °F 24.8 °F 60% 30.13 in 10.0 mi WSW 6.9 mph - N/A   Mostly Cloudy
8:15 PM 37.4 °F 32.8 °F 24.8 °F 60% 30.13 in 10.0 mi WSW 5.8 mph - N/A   Overcast
8:35 PM 37.4 °F 33.8 °F 26.6 °F 65% 30.12 in 10.0 mi WSW 4.6 mph - N/A   Mostly Cloudy
8:55 PM 37.4 °F 34.9 °F 26.6 °F 65% 30.12 in 10.0 mi WSW 3.5 mph - N/A   Overcast
9:15 PM 37.4 °F 32.1 °F 26.6 °F 65% 30.12 in 10.0 mi WSW 6.9 mph - N/A   Overcast
9:35 PM 37.4 °F 30.8 °F 26.6 °F 65% 30.12 in 10.0 mi WSW 9.2 mph 16.1 mph N/A   Overcast
9:55 PM 37.4 °F 31.4 °F 26.6 °F 65% 30.11 in 10.0 mi WSW 8.1 mph - N/A   Overcast
10:15 PM 37.4 °F 31.4 °F 26.6 °F 65% 30.11 in 10.0 mi West 8.1 mph - N/A   Mostly Cloudy
10:35 PM 37.4 °F 32.8 °F 28.4 °F 70% 30.10 in 10.0 mi West 5.8 mph - N/A   Mostly Cloudy
10:55 PM 37.4 °F 31.4 °F 26.6 °F 65% 30.10 in 10.0 mi WSW 8.1 mph - N/A   Overcast
11:15 PM 39.2 °F 33.0 °F 26.6 °F 61% 30.09 in 10.0 mi WSW 9.2 mph - N/A   Scattered Clouds
11:35 PM 39.2 °F 31.2 °F 26.6 °F 61% 30.09 in 10.0 mi WSW 13.8 mph 17.3 mph N/A   Mostly Cloudy
11:55 PM 37.4 °F 29.8 °F 26.6 °F 65% 30.08 in 10.0 mi WSW 11.5 mph 16.1 mph N/A   Scattered Clouds